STARLINK-36707, 67706

Orbit data source: Space-Track

STARLINK-36707, 67706 is a payload satellite owned by SpaceX/Seattle (US) in SSO that was launched on Sat, 07 Feb 2026 UTC via an FALCON 9 launch vehicle from the Air Force Western Test Range (AFWTR). Payload-class satellites include a variety of spacecraft equipped with specific instruments for various scientific and technological missions. These include communications satellites like Starlink; space stations such as the ISS; scientific satellites like the Hubble; Earth observation satellites from companies like Planet Labs, Umbra, and HawkEye 360; GPS; miniature CubeSats for education and research; and military/defense satellites.

Loading next visibility...
Identifier
67706, 2026-025P
Orbit
SSO
Country
Flag of USUS
Related business
Manufacturer
SpaceX/Seattle
Mission
Operational spacecraft
Bus & Motor
STARLINK V2MO, Unknown motor
Mass
575 kg wet, ~530 kg dry
Launch date (UTC)
2026-02-07 (1 month ago)
Launch vehicle
FALCON 9
Launch site
Air Force Western Test Range (AFWTR)
Object type
Payload
Rocket body
Debris
Shape & HBR
Unknown
Radar Cross Section
RCS unknown

Expand to show TLE details & history
Last TLE update: 12 hours ago

TLE from 12 hours ago
0 STARLINK-36707
1 67706U 26025P   26071.86160398  .00284920  00000-0  18513-2 0  9993
2 67706  97.2861 183.6621 0000505  85.1377 274.9946 15.75148122  6440
Epoch: 2026-03-12T20:40Z
TLE epoch observation values (Epoch: 2026-03-12T20:40:42.583Z)
Latitude
-0.00004°
Longitude
62.97926°
Altitude
347.348 km
Speed
7.7 km/s
True Right ascension
12h 14m 38s
True Declination
0° 00' 00"
Sunlit
Object was in full shadow at epoch
Visualization orbit readout
Latitude
Unknown
Longitude
Unknown
Altitude
Unknown
Speed
Unknown
Apparent Right ascension
Unknown
Apparent Declination
Unknown
Sunlit
N/A
Visualization observer readout
Local Sidereal Time
12:48:57
Azimuth
Unknown
Elevation
Unknown
Doppler factor
Unknown
Orbital elements
Apogee altitude
341.437 km
Perigee altitude
340.758 km
Semi-major axis
6,719.234 km
Eccentricity
0.00005
Inclination
97.2861°
RAAN
183.6621°
Arg. of periapsis
85.1377°
True anomaly
274.98884°
Mean anomaly
274.9946°
Eccentric anomaly
274.99172°
Mean motion
3.94061 °/min
Orbital period
91.36 mins
BSTAR
0.0018513
Loading maneuver chart data...
Computing Atmospheric mass density...
Loading historical data...
Loading historical data...
Loading historical data...
Loading historical data...
Loading historical data...
Loading historical data...
Loading historical data...

Documentation

Showing up to 5 results
|